Погода Геокчаы

Погода Геокчаы : погода сейчас, прогноз погоды и архив. Всё, что Вы хотите узнать о погоде Геокчаы!

Поиск расширенной информации на нашем сайте:

Другие новости

Новости СМИ2

Главная страница сайта

Новости сайта

02.10.2013

Напоминаем, что на нашем новом сайте вы можете получить высокодетализированные прогнозы погоды по пунктам России, СНГ и мира (включающие важные для авиации метеовеличины, такие как направление и скорость ветра, видимость, явления погоды, количество и форма облачности, нижняя и верхняя граница облачности), а также ознакомиться с разнообразными материалами по авиационной метеорологии и подборкой полезных ссылок на эту тему.

Сайт Метеоцентр.Азия посвящён разработке технологий оптимизации авиаметеорологического обслуживания, включая проектирование и перспективное создание нескольких автоматизированных авиаметеорологических систем:
- система выпуска высокодетальных прогностических карт явлений погоды для нижнего воздушного пространства по России и ближнему зарубежью;
- система верификации прогнозов TAF (выпускаемых синоптиками официальных АМСГ РФ и ближнего зарубежья) и AUTOTAF (выпускаемых сайтом Метеоцентр.Азия) - выявление ошибок, онлайн-сопоставление с фактической погодой METAR, автоматическое внесение коррективов в прогнозы при резком отклонении фактической погоды от прогноза, подсчёт оправдываемости прогнозов по элементам и в целом;
- система обработки, анализа и отображения авиаметеорологической информации для применения провайдерами метеорологической информации.


Погода Геокчаы - сегодня

Время (UTC), дата Ветер
(°,м/с) 
Видим.   Явления Облачность Т
(°С)
Тd
(°С)
f(%) Тe
(°С)
Pmin
(гПа)
dP
(гПа)
Po
(мм)
O2
(г/м3)
Тmin Tmax R s Состояние
почвы
21 24.05.17 230 (ЮЗ) 20000 м    10/3 600 м кучево-дожд., средняя 
[Cb calv|Ac As]
+17 +14.2 84 +25  1015.7  0.7  753  283           
00 25.05.17 250 (З) 20000 м    3/0 средняя 
[Ac lent]
+15.2 +12.6 84 +21  1015.7  -0.1  753  285           
03 25.05.17 250 (З) 4000 м  дымка  9/4 600 м кучево-дожд., средняя 
[Cb calv|Ac As]
+14.9 +12.7 87 +21  1017  1.3  754  286           
06 25.05.17 180 (Ю) 20000 м    8/0 средняя 
[Ac As]
+21.2 +15 68 +30  1017.4  0.6  755  279           
09 25.05.17 230 (ЮЗ) 20000 м    6/6 1000 м 
[Cu med, cong]
+24.4 +14.1 53 +31  1016.1  -1.1  754  276           
12 25.05.17 200 (Ю) 20000 м    4/4 1000 м 
[Cu med, cong]
+26.5 +14.1 46 +34  1014.6  -1.3  753  274           
15 25.05.17 230 (ЮЗ) 20000 м    8/0 верхняя 
[Cs]
+25.6 +13.3 47 +31  1014.9  0.3  753  275           
18 25.05.17 140 (ЮВ) 20000 м    8/0 средняя 
[Ac As]
+19.9 +14.2 70 +28  1017.7  2.6  755  281    +26.9       
21 25.05.17 180 (Ю) 20000 м    10/3 600 м кучево-дожд., средняя 
[Cb calv|Ac As]
+18.2 +13 72 +24  1018.9  756  283           
00 26.05.17 140 (ЮВ) 20000 м    10/4 600 м кучево-дожд., средняя 
[Cb calv|Ac As]
+17.9 +12.9 73 +24  1018.7  -0.2  756  283           
03 26.05.17 250 (З) 20000 м    10/4 600 м кучево-дожд., средняя 
[Cb calv|Ac As]
+18 +13.6 75 +25  1019.1  0.4  756  283           
06 26.05.17 230 (ЮЗ) 20000 м    10/4 600 м кучево-дожд., средняя 
[Cb calv|Ac As]
+19.6 +13.3 67 +27  1019.3  0.2  756  282           
09 26.05.17 160 (Ю) 20000 м    8/0 средняя 
[Ac As]
+23.5 +13.3 53 +29  1017.9  -1.3  755  278           
12 26.05.17 290 (З) 20000 м    8/3 600 м кучево-дожд., средняя 
[Cb calv|Ac As]
+24.7 +13.6 50 +31  1015.9  -1.9  754  276           
15 26.05.17 290 (З) 20000 м    4/4 1000 м 
[Cu med, cong]
+23.8 +13.5 52 +30  1014.2  -1.6  752  276           
18 26.05.17 360 (С) 20000 м    3/0 средняя 
[Ac lent]
+18.8 +14.3 75 +27  1015.3  0.9  753  281    +25       
21 26.05.17 090 (В) 20000 м    10/3 600 м кучево-дожд., средняя 
[Cb calv|Ac As]
+17.9 +15.1 84 +28  1015.9  0.5  754  282           
00 27.05.17 180 (Ю) 4000 м  дымка  9/3 600 м кучево-дожд., средняя 
[Cb calv|Ac As]
+16.7 +15.3 91 +27  1015.1  -0.8  753  283           
03 27.05.17 090 (В) 4000 м  дымка  9/3 600 м кучево-дожд., средняя 
[Cb calv|Ac As]
+16.4 +15.1 92 +27  1014.4  -0.2  753  283           
06 27.05.17 020 (С) 20000 м    9/3 600 м кучево-дожд., средняя 
[Cb calv|Ac As]
+21.6 +15.4 68 +31  1014.8  0.1  753  278           
09 27.05.17 230 (ЮЗ) 20000 м    8/4 600 м кучево-дожд., средняя 
[Cb calv|Ac As]
+24 +15.4 59 +33  1012.3  -2.4  751  275           
12 27.05.17 230 (ЮЗ) 20000 м    9/4 600 м кучево-дожд., средняя 
[Cb calv|Ac As]
+24.8 +15.2 55 +34  1010  -2.2  749  274           
21 27.05.17 110 (В) 20000 м    4/4 1000 м 
[Cu med, cong]
+19.6 +16.3 81 +32  1012.2  0.7  751  279           
00 28.05.17 180 (Ю) 4000 м  дымка  6/6 1000 м 
[Cu hum]
+18.4 +16.9 91 +31  1012.5  0.2  751  280           
09 28.05.17 230 (ЮЗ) 20000 м    4/4 1000 м 
[Cu hum]
+26.4 +16.4 54 +38  1012.2  -1.1  751  272           
Время (UTC), дата Ветер
(°,м/с) 
Видим.   Явления Облачность Т
(°С)
Тd
(°С)
f(%) Тe
(°С)
Pmin
(гПа)
dP
(гПа)
Po
(мм)
O2
(г/м3)
Тmin Tmax R s Состояние
почвы

Для получения пояснительной информации подведите курсор к названию столбца.

ПОГОДА Геокчаы - архив

Всё, что Вы хотите узнать о погоде Геокчаы - удобно и подробно!

Выберите нужную дату (начиная с 1 января 2015* года) и нажмите кнопку "Найти".
Будут отображены архивные сводки погоды по пункту Геокчаы, начиная с указанной даты.


Отображать данные в формате CSV (для использования в таблицах Excel)


Внимание! Наш архив погоды предназначен исключительно для личного некоммерческого использования в познавательных целях. Если Вам необходимы официальные справки о состоянии погоды (для производственных, юридических, коммерческих и т.п. целей), обращайтесь в органы Росгидромета.

*Примечание: данная дата относится к архиву по метеостанциям СССР (Россия, СНГ, Балтия).
Архив по метеостанциям Зарубежной Европы и Азии (кроме Китая) хранится 10 дней, по другим регионам земного шара (Китай, Африка, Америка, Австралия, Океания) - 1 день.

Геокчаы - район местоположения метеостанции


Название, широта, долгота, высота метеостанции:
Геокчаы 40.6°ш. 47.8°д. 95 м над ур. моря [Азербайджан]

Дополнительная информация

В oтличие oт бoльшинства пoгoдных сайтoв мы публикуем пoдрoбную метеoинфoрмацию в детальнoм прoфессиoнальнoм фoрмате.

Характеристики температуры и влажнoсти вoздуха измеряются на высoте 2 м в тени вдали oт зданий и деревьев.
Скoрoсть ветра измеряется на высoте 10 м (на урoвне рoста челoвека скoрoсть ветра ниже в 1.5-2 раза). Если метеoстанция нахoдится в гoрoде или в лесу, тo скoрoсть ветра занижена на 2-4 м/с пo сравнению с oткрытым местoм. Скoрoсть ветра над акватoриями крупных рек и oзёр, а также на вершинах хoлмoв на 2-5 м/с выше, чем в oбычных услoвиях.
Атмoсфернoе давление в разных тoчках местнoсти мoжет значительнo oтличаться oт давления на метеoстанции, в зависимoсти oт услoвий рельефа (при пoдъёме на 10 м давление пoнижается примернo на 1 мм рт.ст.).